{"data":{"norad_id":50472,"intl_designator":"2021-132D","name":"ONEWEB-0392","alt_names":[],"object_type":"PAYLOAD","status":"ACTIVE","operator":null,"country":"UK","launch_date":"2021-12-27","launch_site_code":"TYMSC","launch_vehicle":null,"mission":null,"orbit_class":"UNKNOWN","rcs_meters":null,"size_class":null,"mass_kg":null,"dimensions":null,"purposes":["comms"],"wikipedia_slug":null,"has_3d_model":false,"image_url":null,"decayed_at":null,"tle_current":{"epoch":"2026-05-25T03:32:56.728320Z","epoch_age_seconds":63100,"freshness":"FRESH","line1":"1 50472U 21132D   26145.14787880  .00000105  00000+0  23723-3 0  9993","line2":"2 50472  87.9162  10.4271 0002144  90.9173 269.2204 13.17649467215087","mean_motion":13.17649467,"eccentricity":0.0002144,"inclination_deg":87.9162,"raan_deg":10.4271,"arg_perigee_deg":90.9173,"mean_anomaly_deg":269.2204,"bstar":0.00023723,"rev_number":21508,"period_min":109.2855145518,"perigee_km":1192.0880664797,"apogee_km":1195.334875104,"semimajor_km":7571.8484707919,"source":"CELESTRAK","updated_at":"2026-05-25T13:38:22.528323Z"}}}